| time (UTC) | temp C | wind direction | speed KPH | gust KPH | rain 1hr cm | rain 24hr cm | rain mn cm | humidity % | barometer mb |
| 20260504110505 | 11 | 108 | 3.2 | 6.4 | 0.00 | 0.00 | 0.00 | 64 | 1012.3 |
| 20260504100505 | 12 | 112 | 1.6 | 3.2 | 0.00 | 0.00 | 0.00 | 61 | 1012.7 |
| 20260504082005 | 10 | 154 | 1.6 | 9.7 | 0.00 | 0.00 | 0.00 | 60 | 1012.5 |
| 20260504080505 | 10 | 141 | 3.2 | 6.4 | 0.00 | 0.00 | 0.00 | 58 | 1012.4 |
| 20260504050505 | 10 | 135 | 0.0 | 6.4 | 0.00 | 0.00 | 0.00 | 64 | 1011.3 |
| 20260504050005 | 9 | 152 | 0.0 | 6.4 | 0.00 | 0.00 | 0.00 | 63 | 1011.7 |
| 20260504045505 | 9 | 156 | 3.2 | 9.7 | 0.00 | 0.00 | 0.00 | 63 | 1011.3 |
| 20260504045005 | 9 | 155 | 3.2 | 9.7 | 0.00 | 0.00 | 0.00 | 66 | 1011.2 |
| 20260504044506 | 8 | 156 | 6.4 | 9.7 | 0.00 | 0.00 | 0.00 | 49 | 1011.2 |
| 20260504043505 | 8 | 154 | 6.4 | 9.7 | 0.00 | 0.00 | 0.00 | 49 | 1011.1 |
| 20260504043005 | 8 | 145 | 6.4 | 6.4 | 0.00 | 0.00 | 0.00 | 51 | 1011.0 |
| 20260504042505 | 8 | 127 | 3.2 | 3.2 | 0.00 | 0.00 | 0.00 | 69 | 1011.0 |
| 20260504042006 | 9 | 120 | 3.2 | 3.2 | 0.00 | 0.00 | 0.00 | 70 | 1011.3 |
| 20260504041505 | 9 | 116 | 3.2 | 6.4 | 0.00 | 0.00 | 0.00 | 69 | 1011.0 |
| 20260504041005 | 10 | 114 | 3.2 | 6.4 | 0.00 | 0.00 | 0.00 | 66 | 1011.3 |
| 20260504040506 | 10 | 0 | 0.0 | 0.0 | 0.00 | 0.00 | 0.00 | 59 | 1011.1 |
| 20260504040005 | 10 | 112 | 0.0 | 3.2 | 0.00 | 0.00 | 0.00 | 56 | 1011.2 |
| 20260504035505 | 10 | 111 | 0.0 | 3.2 | 0.00 | 0.00 | 0.00 | 57 | 1011.2 |
| 20260504034006 | 10 | 112 | 3.2 | 6.4 | 0.00 | 0.00 | 0.00 | 65 | 1011.2 |
| 20260504033005 | 10 | 112 | 0.0 | 6.4 | 0.00 | 0.00 | 0.00 | 62 | 1011.2 |
| 20260504032506 | 10 | 112 | 3.2 | 6.4 | 0.00 | 0.00 | 0.00 | 61 | 1011.6 |
| 20260504032005 | 10 | 112 | 4.8 | 6.4 | 0.00 | 0.00 | 0.00 | 59 | 1011.2 |
| 20260504031005 | 10 | 112 | 6.4 | 6.4 | 0.00 | 0.00 | 0.00 | 58 | 1011.4 |
| 20260504030505 | 10 | 116 | 4.8 | 6.4 | 0.00 | 0.00 | 0.00 | 59 | 1011.4 |
| 20260504025005 | 10 | 144 | 3.2 | 3.2 | 0.00 | 0.00 | 0.00 | 55 | 1011.5 |
| 20260504024506 | 10 | 155 | 3.2 | 3.2 | 0.00 | 0.00 | 0.00 | 54 | 1011.5 |
| 20260504024005 | 10 | 158 | 3.2 | 3.2 | 0.00 | 0.00 | 0.00 | 55 | 1011.5 |
| 20260504023505 | 10 | 158 | 0.0 | 3.2 | 0.00 | 0.00 | 0.00 | 60 | 1011.5 |
| 20260504023005 | 10 | 158 | 0.0 | 3.2 | 0.00 | 0.00 | 0.00 | 59 | 1011.5 |
| 20260504022505 | 10 | 0 | 0.0 | 0.0 | 0.00 | 0.00 | 0.00 | 64 | 1011.5 |
| 20260504022005 | 10 | 158 | 0.0 | 3.2 | 0.00 | 0.00 | 0.00 | 62 | 1011.5 |
| 20260504021005 | 10 | 146 | 1.6 | 3.2 | 0.00 | 0.00 | 0.00 | 56 | 1011.7 |
| 20260504020006 | 10 | 0 | 0.0 | 0.0 | 0.00 | 0.00 | 0.00 | 61 | 1011.8 |
| 20260504015505 | 10 | 0 | 0.0 | 0.0 | 0.00 | 0.00 | 0.00 | 56 | 1011.6 |
| 20260504015006 | 10 | 0 | 0.0 | 0.0 | 0.00 | 0.00 | 0.00 | 58 | 1011.4 |
| 20260504014505 | 10 | 0 | 0.0 | 0.0 | 0.00 | 0.00 | 0.00 | 56 | 1011.7 |
| 20260504013505 | 10 | 0 | 0.0 | 0.0 | 0.00 | 0.00 | 0.00 | 56 | 1011.7 |
| 20260504013005 | 10 | 0 | 0.0 | 0.0 | 0.00 | 0.00 | 0.00 | 59 | 1011.7 |
| 20260504012506 | 10 | 135 | 0.0 | 3.2 | 0.00 | 0.00 | 0.00 | 57 | 1011.5 |
| 20260504012005 | 10 | 135 | 0.0 | 3.2 | 0.00 | 0.00 | 0.00 | 56 | 1011.6 |
| 20260504011505 | 10 | 135 | 0.0 | 3.2 | 0.00 | 0.00 | 0.00 | 58 | 1011.8 |
| 20260504011006 | 10 | 135 | 3.2 | 3.2 | 0.00 | 0.00 | 0.00 | 55 | 1011.8 |
| 20260504010506 | 10 | 135 | 1.6 | 3.2 | 0.00 | 0.00 | 0.00 | 58 | 1011.5 |
| 20260504010005 | 10 | 135 | 1.6 | 3.2 | 0.00 | 0.00 | 0.00 | 63 | 1011.8 |
| 20260504005505 | 10 | 135 | 0.0 | 3.2 | 0.00 | 0.00 | 0.00 | 64 | 1011.9 |
| 20260504005006 | 10 | 135 | 1.6 | 3.2 | 0.00 | 0.00 | 0.00 | 65 | 1011.7 |
| 20260504004505 | 10 | 112 | 0.0 | 3.2 | 0.00 | 0.00 | 0.00 | 62 | 1012.0 |
| 20260504003506 | 10 | 112 | 3.2 | 6.4 | 0.00 | 0.00 | 0.00 | 64 | 1012.0 |
| 20260504003005 | 10 | 0 | 0.0 | 0.0 | 0.00 | 0.00 | 0.00 | 65 | 1012.1 |
| 20260504002505 | 10 | 0 | 0.0 | 0.0 | 0.00 | 0.00 | 0.00 | 65 | 1011.9 |
| 20260504001505 | 10 | 174 | 0.0 | 3.2 | 0.00 | 0.00 | 0.00 | 66 | 1012.0 |
| 20260504001005 | 10 | 158 | 0.0 | 3.2 | 0.00 | 0.00 | 0.00 | 66 | 1012.3 |
| 20260504000506 | 10 | 158 | 1.6 | 3.2 | 0.00 | 0.00 | 0.00 | 65 | 1012.3 |
| 20260503235505 | 10 | 114 | 0.0 | 3.2 | 0.00 | 0.00 | 0.00 | 65 | 1012.2 |
| 20260503235006 | 10 | 111 | 1.6 | 3.2 | 0.00 | 0.00 | 0.00 | 63 | 1012.4 |
| 20260503234505 | 10 | 111 | 3.2 | 3.2 | 0.00 | 0.00 | 0.00 | 63 | 1012.5 |
| 20260503234006 | 10 | 111 | 3.2 | 3.2 | 0.00 | 0.00 | 0.00 | 63 | 1012.4 |
| 20260503233505 | 10 | 111 | 3.2 | 3.2 | 0.00 | 0.00 | 0.00 | 63 | 1012.4 |
| 20260503233006 | 10 | 111 | 3.2 | 3.2 | 0.00 | 0.00 | 0.00 | 64 | 1012.5 |
| 20260503232505 | 10 | 107 | 3.2 | 6.4 | 0.00 | 0.00 | 0.00 | 64 | 1012.5 |
| 20260503232005 | 10 | 107 | 3.2 | 6.4 | 0.00 | 0.00 | 0.00 | 65 | 1012.5 |
| 20260503231505 | 10 | 118 | 3.2 | 6.4 | 0.00 | 0.00 | 0.00 | 64 | 1012.6 |
| 20260503231005 | 10 | 130 | 3.2 | 3.2 | 0.00 | 0.00 | 0.00 | 60 | 1012.5 |
| 20260503230505 | 10 | 135 | 3.2 | 3.2 | 0.00 | 0.00 | 0.00 | 60 | 1012.5 |
| 20260503230005 | 10 | 135 | 3.2 | 3.2 | 0.00 | 0.00 | 0.00 | 57 | 1012.6 |
| 20260503225505 | 10 | 135 | 3.2 | 3.2 | 0.00 | 0.00 | 0.00 | 56 | 1012.7 |
| 20260503225005 | 10 | 0 | 0.0 | 0.0 | 0.00 | 0.00 | 0.00 | 59 | 1012.6 |
| 20260503224505 | 10 | 181 | 0.0 | 3.2 | 0.00 | 0.00 | 0.00 | 59 | 1012.5 |
| 20260503224006 | 10 | 181 | 0.0 | 3.2 | 0.00 | 0.00 | 0.00 | 58 | 1012.4 |
| 20260503223006 | 10 | 192 | 1.6 | 3.2 | 0.00 | 0.00 | 0.00 | 58 | 1012.6 |
| 20260503221505 | 10 | 195 | 1.6 | 3.2 | 0.00 | 0.00 | 0.00 | 57 | 1012.3 |
| 20260503221006 | 10 | 203 | 3.2 | 3.2 | 0.00 | 0.00 | 0.00 | 57 | 1012.7 |
| 20260503220010 | 10 | 0 | 0.0 | 0.0 | 0.00 | 0.00 | 0.00 | 59 | 1012.5 |
| 20260503215505 | 10 | 0 | 0.0 | 0.0 | 0.00 | 0.00 | 0.00 | 62 | 1012.6 |
| 20260503215006 | 10 | 0 | 0.0 | 0.0 | 0.00 | 0.00 | 0.00 | 64 | 1012.4 |
| 20260503214505 | 10 | 0 | 0.0 | 0.0 | 0.00 | 0.00 | 0.00 | 65 | 1012.6 |
| 20260503213506 | 10 | 0 | 0.0 | 0.0 | 0.00 | 0.00 | 0.00 | 68 | 1012.5 |
| 20260503213005 | 10 | 0 | 0.0 | 0.0 | 0.00 | 0.00 | 0.00 | 68 | 1012.5 |
| 20260503212505 | 10 | 203 | 0.0 | 3.2 | 0.00 | 0.00 | 0.00 | 69 | 1012.6 |
| 20260503212005 | 10 | 203 | 0.0 | 3.2 | 0.00 | 0.00 | 0.00 | 69 | 1012.7 |
| 20260503211506 | 10 | 203 | 3.2 | 3.2 | 0.00 | 0.00 | 0.00 | 69 | 1012.5 |
| 20260503211006 | 10 | 203 | 1.6 | 3.2 | 0.00 | 0.00 | 0.00 | 70 | 1012.4 |
| 20260503210505 | 10 | 203 | 1.6 | 3.2 | 0.00 | 0.00 | 0.00 | 69 | 1012.5 |
| 20260503210006 | 10 | 197 | 3.2 | 3.2 | 0.00 | 0.00 | 0.00 | 69 | 1012.6 |
| 20260503205505 | 10 | 190 | 1.6 | 3.2 | 0.00 | 0.00 | 0.00 | 68 | 1012.6 |
| 20260503205006 | 10 | 181 | 0.0 | 3.2 | 0.00 | 0.00 | 0.00 | 69 | 1012.4 |
| 20260503204005 | 10 | 169 | 0.0 | 3.2 | 0.00 | 0.00 | 0.00 | 68 | 1012.5 |
| 20260503203505 | 10 | 148 | 0.0 | 3.2 | 0.00 | 0.00 | 0.00 | 68 | 1012.3 |
| 20260503203005 | 10 | 144 | 0.0 | 3.2 | 0.00 | 0.00 | 0.00 | 67 | 1012.6 |
| 20260503202505 | 10 | 168 | 0.0 | 6.4 | 0.00 | 0.00 | 0.00 | 66 | 1012.6 |
| 20260503202005 | 10 | 183 | 3.2 | 6.4 | 0.00 | 0.00 | 0.00 | 66 | 1012.4 |
| 20260503201506 | 10 | 182 | 1.6 | 6.4 | 0.00 | 0.00 | 0.00 | 66 | 1012.3 |
| 20260503201005 | 10 | 185 | 0.0 | 6.4 | 0.00 | 0.00 | 0.00 | 66 | 1012.4 |
| 20260503200505 | 10 | 172 | 3.2 | 6.4 | 0.00 | 0.00 | 0.00 | 66 | 1012.5 |
| 20260503200006 | 10 | 157 | 1.6 | 6.4 | 0.00 | 0.00 | 0.00 | 66 | 1012.4 |
| 20260503195006 | 10 | 146 | 3.2 | 6.4 | 0.00 | 0.00 | 0.00 | 65 | 1012.3 |
| 20260503194505 | 10 | 145 | 3.2 | 6.4 | 0.00 | 0.00 | 0.00 | 65 | 1012.5 |
| 20260503194006 | 10 | 146 | 1.6 | 6.4 | 0.00 | 0.00 | 0.00 | 64 | 1012.5 |
| 20260503193505 | 10 | 147 | 4.8 | 6.4 | 0.00 | 0.00 | 0.00 | 63 | 1011.6 |
| 20260503192506 | 10 | 143 | 3.2 | 6.4 | 0.00 | 0.00 | 0.00 | 65 | 1012.3 |
| 20260503192005 | 10 | 133 | 3.2 | 6.4 | 0.00 | 0.00 | 0.00 | 64 | 1012.2 |
| 20260503191506 | 10 | 133 | 3.2 | 6.4 | 0.00 | 0.00 | 0.00 | 65 | 1012.0 |
| 20260503191006 | 10 | 139 | 1.6 | 3.2 | 0.00 | 0.00 | 0.00 | 65 | 1012.1 |
| 20260503190506 | 10 | 145 | 0.0 | 6.4 | 0.00 | 0.00 | 0.00 | 65 | 1012.0 |
| 20260503190005 | 10 | 143 | 3.2 | 6.4 | 0.00 | 0.00 | 0.00 | 63 | 1012.1 |
| 20260503185506 | 10 | 142 | 4.8 | 6.4 | 0.00 | 0.00 | 0.00 | 63 | 1012.1 |
| 20260503185005 | 10 | 132 | 3.2 | 9.7 | 0.00 | 0.00 | 0.00 | 66 | 1012.0 |
| 20260503184505 | 10 | 118 | 4.8 | 9.7 | 0.00 | 0.00 | 0.00 | 66 | 1011.4 |
| 20260503184006 | 10 | 116 | 6.4 | 9.7 | 0.00 | 0.00 | 0.00 | 65 | 1012.2 |
| 20260503183505 | 10 | 117 | 6.4 | 6.4 | 0.00 | 0.00 | 0.00 | 63 | 1012.0 |
| 20260503183005 | 10 | 127 | 4.8 | 9.7 | 0.00 | 0.00 | 0.00 | 62 | 1012.1 |
| 20260503182506 | 11 | 134 | 6.4 | 9.7 | 0.00 | 0.00 | 0.00 | 62 | 1012.2 |
| 20260503182006 | 10 | 132 | 4.8 | 6.4 | 0.00 | 0.00 | 0.00 | 65 | 1011.9 |
| 20260503181506 | 11 | 133 | 4.8 | 6.4 | 0.00 | 0.00 | 0.00 | 64 | 1012.1 |
| 20260503181005 | 10 | 138 | 3.2 | 6.4 | 0.00 | 0.00 | 0.00 | 65 | 1012.2 |
| 20260503180505 | 10 | 145 | 3.2 | 6.4 | 0.00 | 0.00 | 0.00 | 69 | 1012.0 |
| 20260503175505 | 10 | 140 | 3.2 | 9.7 | 0.00 | 0.00 | 0.00 | 69 | 1012.1 |
| 20260503175006 | 10 | 136 | 3.2 | 6.4 | 0.00 | 0.00 | 0.00 | 69 | 1012.1 |
| 20260503174512 | 11 | 137 | 6.4 | 6.4 | 0.00 | 0.00 | 0.00 | 68 | 1012.0 |
| 20260503174006 | 11 | 131 | 3.2 | 6.4 | 0.00 | 0.00 | 0.00 | 68 | 1012.1 |
| 20260503173505 | 11 | 131 | 3.2 | 6.4 | 0.00 | 0.00 | 0.00 | 66 | 1012.0 |
| 20260503173005 | 11 | 137 | 3.2 | 6.4 | 0.00 | 0.00 | 0.00 | 62 | 1012.0 |
| 20260503172505 | 11 | 143 | 3.2 | 6.4 | 0.00 | 0.00 | 0.00 | 55 | 1012.0 |
| 20260503172006 | 11 | 0 | 0.0 | 0.0 | 0.00 | 0.00 | 0.00 | 61 | 1011.9 |
| 20260503171506 | 11 | 0 | 0.0 | 0.0 | 0.00 | 0.00 | 0.00 | 69 | 1012.0 |
| 20260503171006 | 11 | 0 | 0.0 | 0.0 | 0.00 | 0.00 | 0.00 | 67 | 1012.1 |
| 20260503170505 | 11 | 0 | 0.0 | 0.0 | 0.00 | 0.00 | 0.00 | 69 | 1011.9 |
| 20260503150506 | 12 | 100 | 1.6 | 6.4 | 0.00 | 0.00 | 0.00 | 64 | 1012.8 |
| 20260503131006 | 12 | 93 | 0.0 | 6.4 | 0.00 | 0.00 | 0.00 | 62 | 1012.8 |